Location: Oundoundou
(13.6667°N, 13.5500°W)
Time: 17:23:33
(UTC+00:00)

Daily predictions for brighter satellites

Satellite Brightness Start Highest point End
(mag) Time Altitude Azimuth Time Altitude Azimuth Time Altitude Azimuth
COSMOS 2428 3.9 18:47:15 10° NNE 18:51:14 19° ENE 18:55:13 10° ESE
USA 267 3.9 18:45:24 10° ENE 18:51:22 38° SE 18:57:20 10° SSW
SWAS 4.4 18:47:10 10° SSW 18:51:23 79° ESE 18:55:38 10° NNE
RESURS DK-1 2.5 18:48:58 10° N 18:52:59 53° ENE 18:57:00 10° SSE
Cosmos 2082 4.1 18:49:51 10° S 18:55:12 43° ESE 19:00:34 10° NE
SL-24 R/B - RUBIN 2 3.9 18:53:02 10° N 18:57:08 39° ENE 19:01:07 10° SE
Palapa B4 Rocket 3.6 18:53:48 10° SW 18:57:42 50° SSE 19:03:08 10° E
Ariane Rocket 4.0 18:54:34 10° S 18:59:30 52° WSW 19:04:27 10° NNW
Cosmos 1500 Rocket 3.8 18:55:49 10° N 19:00:06 76° W 19:04:24 10° S
ERS-2 2.1 18:58:08 10° SSE 19:01:49 88° E 19:05:30 10° NNW
ATLAS 2AS CENTAUR RB 3.9 18:15:33 10° WSW 19:01:49 68° S 19:06:55 11° E
METEOR-M 4.3 18:59:22 10° SSE 19:04:30 49° ENE 19:09:38 10° N
Cosmos 1726 2.5 19:03:31 10° SSW 19:07:12 67° W 19:10:52 10° N
Cosmos 1535 Rocket 4.4 19:04:43 10° S 19:10:53 83° E 19:17:00 10° N
Hubble Space Telescope 3.2 19:09:08 10° NW 19:11:04 13° N 19:13:00 10° NNE
ARIANE 5 R/B 4.3 19:10:27 10° S 19:12:23 14° SSE 19:15:52 10° ESE
Cosmos 2322 3.6 19:10:52 10° NNW 19:16:34 79° ENE 19:22:14 10° SSE
Thor Agena Rocket 3.4 19:12:37 10° NNE 19:17:36 66° ESE 19:22:35 10° S
Cosmos 2219 Rocket 3.3 19:16:17 10° NNE 19:20:27 21° ENE 19:22:56 16° ESE
Meteor 2-2 Rocket 4.2 19:15:17 10° S 19:20:59 62° E 19:26:33 10° NNE
Sich 1 3.9 19:17:45 10° NNE 19:21:32 28° E 19:25:19 10° SE
GPS 2-17 Rocket1 3.3 19:18:16 10° W 19:23:01 64° NNW 19:26:04 21° ENE
MONITOR-E 4.2 19:22:26 10° S 19:25:29 80° W 19:28:34 10° NNW
CZ-4 R/B 3.6 19:22:08 10° SSW 19:25:52 31° W 19:29:36 10° NW
Iridium 4 Rocket 4.5 19:26:58 10° SSW 19:32:09 54° W 19:37:43 10° NNW
Cosmos 2228 Rocket 3.2 19:29:31 10° SSE 19:33:52 51° E 19:38:15 10° NNE
YAOGAN 1 4.1 19:31:13 10° S 19:35:14 38° W 19:39:15 10° NNW
Cosmos 1328 Rocket 3.4 19:32:34 10° S 19:36:59 75° E 19:41:22 10° N
Cosmos 1934 Rocket 4.4 19:30:47 10° SSW 19:37:03 67° W 19:43:22 10° N
Cosmos 1805 Rocket 3.5 19:35:02 10° N 19:39:27 87° E 19:43:53 10° S
SPOT 3 Rocket 3.7 19:37:20 10° S 19:42:30 77° WSW 19:47:41 10° NNW
Iridium 43 4.1 19:42:36 10° S 19:45:44 68° E 19:46:12 57° NE
Cosmos 1666 Rocket 3.4 19:44:43 10° N 19:48:59 65° E 19:53:15 10° SSE
ARIANE DEB (SYLDA) 3.8 19:33:25 10° W 19:50:06 50° S 19:52:43 26° SE
Cosmos 2227 Rocket 3.7 19:45:37 10° SW 19:50:43 36° WNW 19:55:51 10° N
Cosmos 2333 4.1 19:46:51 10° NNW 19:52:37 83° ENE 19:58:24 10° SSE
Cosmos 1633 Rocket 3.0 19:48:38 10° N 19:52:58 57° E 19:57:18 10° SSE
Aureole 2 Rocket 2.6 19:52:33 10° N 19:56:38 78° ENE 19:57:37 50° SSE
In-Cosmos 22 Rocket 4.3 19:50:59 10° N 19:56:41 55° E 20:02:20 10° SSE
Shenzhou-11 Module 2.9 19:55:07 10° WSW 19:57:33 47° W 19:57:33 47° W
Cosmos 2237 Rocket 4.4 19:54:31 10° NNE 19:54:33 10° NNE 19:54:33 10° NNE
Cosmos 1151 Rocket 2.9 19:57:26 10° S 20:01:47 85° E 20:02:55 49° N
Cosmos 2100 Rocket 4.1 20:02:58 10° SSE 20:08:11 48° ESE 20:08:11 48° ESE
Ariane 42L R/B 4.2 20:06:14 10° WSW 20:09:49 42° S 20:12:34 32° SE
Cosmos 1607 3.8 20:04:32 10° SSW 20:10:39 77° ESE 20:12:21 50° NE
Cosmos 1455 4.2 20:07:01 10° S 20:08:18 20° S 20:08:18 20° S
FENGYUN 3A 4.3 20:05:39 10° S 20:10:53 55° WSW 20:16:10 10° NNW
Tiangong 2 3.7 20:09:43 10° SW 20:10:36 17° SSW 20:10:36 17° SSW
OAO 1 4.5 20:08:13 10° WSW 20:13:40 75° NW 20:14:19 66° NNE
ALOS 3.6 20:10:17 10° S 20:14:37 39° W 20:18:58 10° NNW
GPS 2-15 Rocket1 4.0 20:12:27 10° WNW 20:16:25 39° NNW 20:16:25 39° NNW
Atlas Centaur 2 2.3 20:13:44 10° NW 20:17:39 51° N 20:17:39 51° N
Cosmos 2173 Rocket 4.4 20:25:43 10° S 20:30:04 48° S 20:30:04 48° S
USA 267 4.5 20:29:56 17° N 20:34:08 35° NW 20:39:56 10° WSW
COSMOS 2428 4.4 20:30:21 10° NW 20:35:19 32° WSW 20:40:17 10° SSW
Cosmos 2333 Rocket 2.7 20:32:33 10° NNW 20:36:59 53° NW 20:36:59 53° NW
Milstar 3 Cent rocket 3.9 20:46:16 10° W 20:52:19 26° SW 20:53:11 25° SSW
Centaur D AC-25 4.4 19:37:32 10° WNW 20:58:20 68° NNE 20:59:07 66° NE
Cosmos 2219 Rocket 3.9 20:59:26 10° NW 21:04:10 29° WSW 21:04:57 28° WSW
